TDRS 6

Last updated on Wed Sep 09 2026 00:02:52 GMT+0000 (Coordinated Universal Time)

1 22314U 93003B 26251.18910372 -.00000308 00000+0 00000+0 0 9994 2 22314 14.1855 356.4308 0009436 197.0323 175.9989 1.00277461123242
UTC large
Height (km)
Speed (km/s)
/
Latitude / Longitude
Inclination (degrees)
Orbital Period (minutes)
Azimuth
Elevation
Range (km)
Doppler Factor

Next 0 passes for location: London (51.5072 / 0.1276)

No passes found over London.
TDRS 6